Regional Weather Roundup
Issued by NWS

Home | Current Version | Previous Version | Text Only | Print | Product List | Glossary On
Versions: 1 2 3 4 5 6 7 8 9 10 11 12 13 14 15 16 17 18 19 20 21 22 23 24 25 26 27 28 29 30 31 32 33 34 35 36 37 38 39 40 41 42 43 44 45 46 47 48 49 50
000
ASUS43 KOAX 172002
RWRNE

WEATHER ROUNDUP FOR NEBRASKA
NATIONAL WEATHER SERVICE OMAHA NE
300 PM CDT TUE OCT 17 2017

NOTES: SATELLITE DATA IS BEING USED TO AUGMENT CLOUD COVER ABOVE
       12000 FEET.
       "FAIR" INDICATES FEW OR NO CLOUDS BELOW 12,000 FEET WITH NO
       SIGNIFICANT WEATHER AND/OR OBSTRUCTIONS TO VISIBILITY.


NEZ001>004-019>022-054>056-172100-
NEBRASKA PANHANDLE

CITY           SKY/WX    TMP DP  RH WIND       PRES   REMARKS
SCOTTSBLUFF    SUNNY     77  15   9 W10       30.03F
ALLIANCE       SUNNY     75  17  11 W16       30.02F
CHADRON        SUNNY     76  17  11 SW8       29.97F
GORDON         FAIR      75  23  14 W8        29.98F
KIMBALL        SUNNY     77  17  10 W20G25    30.09F
SIDNEY         SUNNY     79  13   8 SW14G30   30.07F
$$

NEZ057>060-069>072-079>082-172100-
SOUTHWEST NEBRASKA

CITY           SKY/WX    TMP DP  RH WIND       PRES   REMARKS
NORTH PLATTE   SUNNY     79  28  15 W8        30.03F
IMPERIAL       SUNNY     80  17   9 S9        30.06F
LEXINGTON      SUNNY     78  34  19 SW7       30.04F
MCCOOK         SUNNY     78  30  17 S3        30.05F
OGALLALA       SUNNY     80  22  11 S14       30.03F
$$

NEZ005>010-023>029-035>040-094-172100-
NORTH CENTRAL NEBRASKA

CITY           SKY/WX    TMP DP  RH WIND       PRES   REMARKS
VALENTINE      SUNNY     83  25  12 S16G22    29.95F
AINSWORTH      SUNNY     76  35  22 S10G16    29.99F
BROKEN BOW     SUNNY     77  40  26 S12       30.03F
O`NEILL        SUNNY     78  41  26 SW8       30.00F
ORD            SUNNY     76  32  20 SW6       30.01F
THEDFORD       SUNNY     81  26  13 SW9G17    30.00F
$$

NEZ041-046>049-061>064-073>077-083>087-172100-
SOUTH CENTRAL NEBRASKA

CITY           SKY/WX    TMP DP  RH WIND       PRES   REMARKS
GRAND ISLAND   SUNNY     78  37  22 S5        30.03F
AURORA         SUNNY     77  40  26 CALM      30.02F
HASTINGS       SUNNY     77  36  22 VRB3      30.03F
HEBRON         SUNNY     74  41  31 S7        30.04F
HOLDREGE       SUNNY     77  34  21 CALM      30.04F
KEARNEY        SUNNY     77  30  17 W3        30.04F
YORK           SUNNY     75  41  29 S5        30.03F
$$

NEZ011>018-030>034-042>045-172100-
NORTHEAST NEBRASKA

CITY           SKY/WX    TMP DP  RH WIND       PRES   REMARKS
NORFOLK        SUNNY     77  39  25 S5        29.98F
ALBION         SUNNY     79  35  21 CALM      30.01F
BLAIR          SUNNY     70  45  40 SW8       30.03F
COLUMBUS       SUNNY     75  43  31 VRB3      30.02F
FREMONT        SUNNY     70  44  38 S5        30.03F
TEKAMAH        SUNNY     72  42  34 SW7       30.01F
WAYNE          SUNNY     77  31  18 CALM      29.99F
$$

NEZ050>053-065>068-078-088>093-172100-
SOUTHEAST NEBRASKA

CITY           SKY/WX    TMP DP  RH WIND       PRES   REMARKS
LINCOLN        SUNNY     71  45  39 VRB3      30.04F
OMAHA EPPLEY   SUNNY     71  44  37 S10       30.03F
BEATRICE       SUNNY     70  47  43 S8        30.04F
FALLS CITY     SUNNY     72  45  37 S10       30.05F
NEBRASKA CITY  SUNNY     71  45  39 SW12G17   30.04F
PLATTSMOUTH    SUNNY     72  44  37 S12       30.04F
$$

NEZ044-045-051>053-067-172100-
OMAHA AREA

CITY           SKY/WX    TMP DP  RH WIND       PRES   REMARKS
OMAHA EPPLEY   SUNNY     71  44  37 S10       30.03F
BLAIR          SUNNY     70  45  40 SW8       30.03F
FREMONT        SUNNY     70  44  38 S5        30.03F
MILLARD        SUNNY     71  46  41 S7        30.03F
OFFUTT AFB     SUNNY     71  44  37 S13       30.02F
PLATTSMOUTH    SUNNY     72  44  37 S12       30.04F
WAHOO          FAIR      72  41  33 S6        30.02F
$$




USA.gov is the U.S. government's official web portal to all federal, state and local government web resources and services.